Starlink 4264

operational
NORAD ID: 52993 Int'l Des: 2022-076 Owner: SPXS Country: US Constellation: starlink
LEOCIRCULAR

Starlink 4264について

説明を読み込み中...

リアルタイム位置

3D地球を読み込み中...

次回通過

高度履歴

Altitude vs Time

uPlot chart will show altitude changes over time

軌道要素

1 52993U 22076H 25306.32445676 .00001017 00000-0 81995-4 0 9993
2 52993 53.2175 305.8851 0001289 89.3358 270.7781 15.08838888183617
Epoch: Nov 2, 2025 • Age: 11 hours

現在のステータス

高度 559.1 km
速度 7.58 km/s
衛星直下点 -53.08°S, 114.1°W
打ち上げ日 Jul 7, 2022
運用期間 3.3 years
タイプ internet

技術仕様

分類 Payload
質量 297.00 kg
乾燥質量 275.00 kg
総質量 297.00 kg
長さ 0.20 m
直径 2.80 m
スパン 9.00 m
形状 Box + pan
製造者 SPXS
バスタイプ Starlink
フェーズステータス In Orbit
所有者/国 SPXS/US

大規模コンステレーション

Loading constellations...